Regional Weather Roundup
Issued by NWS Northern Indiana

Home | Current Version | Previous Version | Text Only | Print | Product List | Glossary Off
Versions: 1 2 3 4 5 6 7 8 9 10 11 12 13 14 15 16 17 18 19 20 21 22 23 24 25 26 27 28 29 30 31 32 33 34 35 36 37 38 39 40 41 42 43 44 45 46 47 48 49 50

000
ASUS43 KIWX 202110
RWRIWX

KIWX WEATHER ROUNDUP
NATIONAL WEATHER SERVICE NORTHERN INDIANA
500 PM EDT FRI OCT 20 2017

NOTE: "FAIR" INDICATES FEW OR NO CLOUDS BELOW 12,000 FEET WITH NO
SIGNIFICANT WEATHER AND/OR OBSTRUCTIONS TO VISIBILITY.

* THESE STATIONS ARE NOT UNDER NWS QUALITY CONTROL. THEY ALSO MAY NOT
  REPORT WEATHER SUCH AS PRECIPITATION OR FOG.

INZ001>027-202200-
NORTHERN INDIANA

CITY           SKY/WX    TMP DP  RH WIND       PRES   REMARKS
GARY*          MOSUNNY   81  43  26 S12       30.09F
VALPARAISO     SUNNY     78  51  38 S9        30.11F
MICHIGAN CITY* SUNNY     77  50  38 S9        30.10F
LAPORTE*       SUNNY     76  51  40 S8        30.12F
KNOX*          SUNNY     77  50  38 S9        30.12F
SOUTH BEND     SUNNY     75  50  41 S13       30.13F
ELKHART*       SUNNY     75  50  41 S12       30.13F
GOSHEN         SUNNY     75  49  39 S12       30.14F
MONTICELLO*    SUNNY     75  48  38 S8        30.13F
LOGANSPORT*    SUNNY     75  46  35 S9        30.15S
WARSAW*        SUNNY     73  52  46 S5        30.15S
AUBURN*        SUNNY     77  50  38 S5        30.17S
FORT WAYNE     PTSUNNY   75  50  41 S10       30.16F
HUNTINGTON*    SUNNY     75  47  37 S6        30.16F
PERU/GRISSOM   SUNNY     75  51  41 S10       30.14F
MARION*        SUNNY     75  48  38 SW10      30.17F

$$
INZ028>050-202200-
CENTRAL INDIANA

CITY           SKY/WX    TMP DP  RH WIND       PRES   REMARKS
LAFAYETTE      SUNNY     75  50  41 S5        30.13F
KOKOMO*        SUNNY     75  51  43 S10       30.17F
MUNCIE*        SUNNY     78  47  33 S6        30.17F
INDIANAPOLIS   PTSUNNY   75  50  41 S10       30.16F

$$
MIZ043>046-050>051-056>058-064>065-071>073-077>080-202200-
SOUTHWEST LOWER MICHIGAN

CITY           SKY/WX    TMP DP  RH WIND       PRES   REMARKS
BATTLE CREEK   SUNNY     74  52  46 S15       30.15S
BENTON HARBOR  SUNNY     76  50  40 S7        30.10F
COLDWATER*     SUNNY     74  47  38 S5        30.15F
HILLSDALE*     SUNNY     73  48  40 S7        30.16F
HOLLAND        CLOUDY    76  51  41 SW10      30.10F
GRAND RAPIDS   PTSUNNY   76  50  40 SW10      30.11F
KALAMAZOO      CLOUDY    75  51  43 S12       30.13S
STURGIS*       CLOUDY    75  53  45 S9        30.14F
THREE RIVERS*  FAIR      76  52  42 S12       30.14F

$$
OHZ001>008-015>018-024>025-202200-
NORTHWEST OHIO

CITY           SKY/WX    TMP DP  RH WIND       PRES   REMARKS
WAUSEON*       FAIR      77  50  38 S13       30.16F
DEFIANCE       SUNNY     75  50  41 S8        30.16F
FINDLAY        SUNNY     77  46  33 S9        30.17F
TOLEDO EXPRESS SUNNY     76  50  40 SW7       30.16F
TOLEDO METCALF SUNNY     75  45  34 S9        30.18F
LIMA           SUNNY     75  48  38 S9        30.18F

$$
AND FOR LAKE MICHIGAN COASTAL AND OPEN LAKE BUOY OBSERVATIONS

STATION/POSITION TEMP    WIND        PRES    VSBY  WAVE
                 AIR SEA DIR/SP/G                  HT/PER
                 (F)     (DEG/KT/KT) (MB)    (MI)  (FT/S)
CALUMET HARBOR    78     180/  8/ 15 1017.6F
MICHIGAN CITY     76     170/ 12/ 15   N/A
BURNS HARBOR      77     180/ 12/ 16 1019.3F
SAINT JOSEPH      76     190/  4/  8 1019.3
SOUTH LAKE BUOY   63 61  170/ 12/ 14 1018.8          2/ 4
4 MI NW BRIDGMAN  67 60  200/  6/  8 1019.1          1/ 3
MICHIGAN CITY     69 59  190/  8/ 10   N/A           1

$$
&&




USA.gov is the U.S. government's official web portal to all federal, state and local government web resources and services.